User: anonymous   Login
Location: Fisheating Creek Campgrounds
(26.9333°N, 81.3167°W)
Time: 17:29:40
(UTC-04:00)
Language:

NATO 3D Rocket - Orbit

View from above orbital plane
View from above orbital plane
View from above satellite
View from above satellite

Ground track
Ground track

The orbit data is extracted from the following two-line orbital elements,

1 15392U 84115B   17234.71219544 +.00000254 +00000-0 +78348-4 0  9994
2 15392 021.4982 007.1308 1034355 208.6530 145.3006 12.45549206474521
Epoch (UTC): 22 August 2017 17:05:33
Eccentricity: 0.1034355
inclination: 21.4982°
perigee height: 670 km
apogee height: 2296 km
right ascension of ascending node: 7.1308°
argument of perigee: 208.6530°
revolutions per day: 12.45549206
mean anomaly at epoch: 145.3006°
orbit number at epoch: 47452

The dashed part of the orbit path shows where the satellite is in the earth's shadow,  

DLR